Meteo orario Aba-el-Baul

Oggi, 14 Giugno, Lunedi

Tempo Temperatura Precipitazioni Vento Pressione Umidità
00:00 +32°C° 0 mm 2 m/s 745 mm Hg 27%
01:00 +33°C° 0 mm 4 m/s 745 mm Hg 28%
02:00 +33°C° 0 mm 5 m/s 745 mm Hg 30%
03:00 +33°C° 0 mm 6 m/s 745 mm Hg 31%
04:00 +33°C° 0 mm 7 m/s 745 mm Hg 31%
05:00 +34°C° 0 mm 7 m/s 745 mm Hg 31%
06:00 +34°C° 0 mm 8 m/s 746 mm Hg 31%
07:00 +37°C° 0 mm 9 m/s 746 mm Hg 29%
08:00 +39°C° 0 mm 9 m/s 746 mm Hg 26%
09:00 +42°C° 0 mm 10 m/s 746 mm Hg 24%
10:00 +43°C° 0 mm 9 m/s 746 mm Hg 20%
11:00 +45°C° 0 mm 9 m/s 745 mm Hg 16%
12:00 +48°C° 0 mm 9 m/s 745 mm Hg 11%
13:00 +48°C° 0 mm 9 m/s 745 mm Hg 11%
14:00 +48°C° 0 mm 9 m/s 745 mm Hg 10%
15:00 +48°C° 0 mm 9 m/s 744 mm Hg 9%
16:00 +45°C° 0 mm 7 m/s 744 mm Hg 10%
17:00 +44°C° 0 mm 6 m/s 744 mm Hg 12%
18:00 +41°C° 0 mm 4 m/s 744 mm Hg 13%
19:00 +38°C° 0 mm 3 m/s 745 mm Hg 14%
20:00 +37°C° 0 mm 3 m/s 745 mm Hg 15%
21:00 +35°C° 0 mm 2 m/s 745 mm Hg 17%
22:00 +35°C° 0 mm 2 m/s 744 mm Hg 18%
23:00 +35°C° 0 mm 3 m/s 744 mm Hg 20%

Domani, 15 Giugno, Martedi

Tempo Temperatura Precipitazioni Vento Pressione Umidità
00:00 +35°C° 0 mm 4 m/s 744 mm Hg 21%
01:00 +34°C° 0 mm 4 m/s 744 mm Hg 21%
02:00 +34°C° 0 mm 4 m/s 744 mm Hg 21%
03:00 +34°C° 0 mm 5 m/s 743 mm Hg 21%
04:00 +34°C° 0 mm 4 m/s 744 mm Hg 21%
05:00 +34°C° 0 mm 4 m/s 744 mm Hg 21%
06:00 +34°C° 0 mm 4 m/s 744 mm Hg 22%
07:00 +37°C° 0 mm 5 m/s 744 mm Hg 18%
08:00 +41°C° 0 mm 6 m/s 744 mm Hg 14%
09:00 +45°C° 0 mm 6 m/s 745 mm Hg 11%
10:00 +46°C° 0 mm 7 m/s 744 mm Hg 9%
11:00 +49°C° 0 mm 7 m/s 744 mm Hg 7%
12:00 +51°C° 0 mm 7 m/s 744 mm Hg 6%
13:00 +51°C° 0 mm 7 m/s 743 mm Hg 5%
14:00 +51°C° 0 mm 7 m/s 743 mm Hg 5%
15:00 +51°C° 0 mm 7 m/s 742 mm Hg 4%
16:00 +49°C° 0 mm 6 m/s 742 mm Hg 5%
17:00 +47°C° 0 mm 5 m/s 742 mm Hg 6%
18:00 +44°C° 0 mm 4 m/s 742 mm Hg 7%
19:00 +42°C° 0 mm 3 m/s 743 mm Hg 11%
20:00 +39°C° 0 mm 2 m/s 743 mm Hg 15%
21:00 +37°C° 0 mm 2 m/s 743 mm Hg 20%
22:00 +36°C° 0 mm 2 m/s 743 mm Hg 20%
23:00 +36°C° 0 mm 2 m/s 743 mm Hg 21%

Dopodomani, 16 Giugno, Mercoledi

Tempo Temperatura Precipitazioni Vento Pressione Umidità
00:00 +35°C° 0 mm 3 m/s 743 mm Hg 22%
01:00 +35°C° 0 mm 3 m/s 743 mm Hg 21%
02:00 +35°C° 0 mm 4 m/s 743 mm Hg 20%
03:00 +35°C° 0 mm 4 m/s 743 mm Hg 19%
04:00 +35°C° 0 mm 5 m/s 743 mm Hg 20%
05:00 +35°C° 0 mm 5 m/s 743 mm Hg 20%
06:00 +36°C° 0 mm 6 m/s 744 mm Hg 21%
07:00 +39°C° 0 mm 7 m/s 744 mm Hg 21%
08:00 +41°C° 0 mm 8 m/s 744 mm Hg 22%
09:00 +44°C° 0 mm 9 m/s 745 mm Hg 22%
10:00 +45°C° 0 mm 9 m/s 745 mm Hg 19%
11:00 +48°C° 0 mm 10 m/s 745 mm Hg 16%
12:00 +49°C° 0 mm 11 m/s 745 mm Hg 13%
13:00 +49°C° 0 mm 11 m/s 744 mm Hg 13%
14:00 +48°C° 0 mm 11 m/s 744 mm Hg 13%
15:00 +48°C° 0 mm 11 m/s 744 mm Hg 13%
16:00 +45°C° 0 mm 9 m/s 744 mm Hg 15%
17:00 +43°C° 0 mm 8 m/s 744 mm Hg 17%
18:00 +41°C° 0 mm 6 m/s 745 mm Hg 20%
19:00 +39°C° 0 mm 6 m/s 745 mm Hg 24%
20:00 +37°C° 0 mm 5 m/s 745 mm Hg 28%
21:00 +35°C° 0 mm 4 m/s 745 mm Hg 32%
22:00 +35°C° 0 mm 4 m/s 745 mm Hg 33%
23:00 +34°C° 0 mm 5 m/s 745 mm Hg 35%

17 Giugno, Giovedi

Tempo Temperatura Precipitazioni Vento Pressione Umidità
00:00 +34°C° 0 mm 5 m/s 745 mm Hg 36%
01:00 +34°C° 0 mm 6 m/s 745 mm Hg 36%
02:00 +34°C° 0 mm 6 m/s 745 mm Hg 36%
03:00 +34°C° 0 mm 7 m/s 745 mm Hg 36%
04:00 +34°C° 0 mm 7 m/s 745 mm Hg 35%
05:00 +34°C° 0 mm 6 m/s 745 mm Hg 35%
06:00 +34°C° 0 mm 6 m/s 746 mm Hg 34%
07:00 +37°C° 0 mm 8 m/s 746 mm Hg 28%
08:00 +39°C° 0 mm 9 m/s 746 mm Hg 23%
09:00 +43°C° 0 mm 10 m/s 746 mm Hg 18%
10:00 +44°C° 0 mm 11 m/s 746 mm Hg 15%
11:00 +46°C° 0 mm 12 m/s 746 mm Hg 13%
12:00 +47°C° 0 mm 13 m/s 746 mm Hg 10%
13:00 +47°C° 0 mm 13 m/s 746 mm Hg 9%
14:00 +47°C° 0 mm 13 m/s 745 mm Hg 9%
15:00 +47°C° 0 mm 13 m/s 745 mm Hg 8%
16:00 +44°C° 0 mm 12 m/s 745 mm Hg 11%
17:00 +42°C° 0 mm 10 m/s 745 mm Hg 14%
18:00 +39°C° 0 mm 9 m/s 745 mm Hg 18%
19:00 +38°C° 0 mm 8 m/s 745 mm Hg 21%
20:00 +36°C° 0 mm 7 m/s 745 mm Hg 25%
21:00 +35°C° 0 mm 6 m/s 745 mm Hg 29%
22:00 +35°C° 0 mm 6 m/s 745 mm Hg 31%
23:00 +35°C° 0 mm 7 m/s 745 mm Hg 33%

18 Giugno, Venerdi

Tempo Temperatura Precipitazioni Vento Pressione Umidità
00:00 +35°C° 0 mm 7 m/s 745 mm Hg 35%
01:00 +35°C° 0 mm 8 m/s 745 mm Hg 32%
02:00 +35°C° 0 mm 8 m/s 745 mm Hg 29%
03:00 +35°C° 0 mm 8 m/s 745 mm Hg 25%
04:00 +34°C° 0 mm 8 m/s 745 mm Hg 27%
05:00 +34°C° 0 mm 8 m/s 745 mm Hg 29%
06:00 +34°C° 0 mm 8 m/s 745 mm Hg 30%
07:00 +37°C° 0 mm 9 m/s 745 mm Hg 26%
08:00 +39°C° 0 mm 10 m/s 746 mm Hg 21%
09:00 +40°C° 0 mm 10 m/s 746 mm Hg 16%
10:00 +42°C° 0 mm 10 m/s 745 mm Hg 15%
11:00 +44°C° 0 mm 10 m/s 745 mm Hg 13%
12:00 +45°C° 0 mm 10 m/s 745 mm Hg 12%
13:00 +45°C° 0 mm 10 m/s 745 mm Hg 12%
14:00 +45°C° 0 mm 10 m/s 745 mm Hg 12%
15:00 +45°C° 0 mm 9 m/s 744 mm Hg 12%
16:00 +43°C° 0 mm 8 m/s 744 mm Hg 13%
17:00 +41°C° 0 mm 7 m/s 744 mm Hg 15%
18:00 +39°C° 0 mm 6 m/s 744 mm Hg 16%
19:00 +37°C° 0 mm 5 m/s 745 mm Hg 21%
20:00 +35°C° 0 mm 5 m/s 745 mm Hg 25%
21:00 +33°C° 0 mm 4 m/s 745 mm Hg 29%
22:00 +33°C° 0 mm 4 m/s 745 mm Hg 34%
23:00 +32°C° 0 mm 4 m/s 745 mm Hg 39%

19 Giugno, Sabato

Tempo Temperatura Precipitazioni Vento Pressione Umidità
00:00 +32°C° 0 mm 4 m/s 745 mm Hg 44%
01:00 +31°C° 0 mm 3 m/s 745 mm Hg 44%
02:00 +30°C° 0 mm 3 m/s 745 mm Hg 45%
03:00 +30°C° 0 mm 3 m/s 745 mm Hg 46%
04:00 +31°C° 0 mm 3 m/s 746 mm Hg 42%
05:00 +32°C° 0 mm 4 m/s 746 mm Hg 39%
06:00 +33°C° 0 mm 4 m/s 746 mm Hg 35%
07:00 +36°C° 0 mm 5 m/s 746 mm Hg 29%
08:00 +40°C° 0 mm 6 m/s 746 mm Hg 22%
09:00 +44°C° 0 mm 6 m/s 746 mm Hg 15%
10:00 +45°C° 0 mm 6 m/s 746 mm Hg 15%
11:00 +46°C° 0 mm 7 m/s 746 mm Hg 14%
12:00 +47°C° 0 mm 7 m/s 746 mm Hg 13%
13:00 +47°C° 0 mm 6 m/s 745 mm Hg 14%
14:00 +47°C° 0 mm 6 m/s 745 mm Hg 15%
15:00 +47°C° 0 mm 6 m/s 745 mm Hg 16%
16:00 +45°C° 0 mm 5 m/s 745 mm Hg 21%
17:00 +42°C° 0 mm 5 m/s 745 mm Hg 25%
18:00 +40°C° 0 mm 4 m/s 745 mm Hg 30%
19:00 +37°C° 0 mm 3 m/s 745 mm Hg 34%
20:00 +36°C° 0 mm 3 m/s 746 mm Hg 39%
21:00 +34°C° 0 mm 2 m/s 746 mm Hg 43%
22:00 +34°C° 0 mm 2 m/s 746 mm Hg 45%
23:00 +34°C° 0 mm 3 m/s 746 mm Hg 48%
Mostrare altro

Abbiamo bisogno del tuo consenso

Meteoprog e i nostri fornitori di servizi possono memorizzare e accedere a dati personali come cookie, identificatori di dispositivi o altre tecnologie simili sul tuo dispositivo e possono elaborare tali dati per personalizzare i contenuti e gli annunci, nonché fornire funzionalità dei social media e analizzarne il traffico.

  • Archiviare e/o accedere alle informazioni sul tuo dispositivo

    Cookie, identificatori di dispositivi o altre informazioni possono essere memorizzati o resi accessibili sul tuo dispositivo per le finalità sopra indicate.

  • Annunci e contenuti personalizzati, misurazione di annunci e contenuti, approfondimenti sul pubblico e sviluppo di prodotti

    Gli annunci e i contenuti possono essere personalizzati in base a un profilo. È possibile aggiungere più dati per personalizzare meglio annunci e contenuti. È possibile misurare il rendimento degli annunci e dei contenuti. È possibile ricavare informazioni sul pubblico che ha visto gli annunci e i contenuti. Tali dati possono essere utilizzati per sviluppare o migliorare l'esperienza, i sistemi e il software dell'utente.

Cliccando su “Accetto”, acconsenti all'uso di cookie, identificatori di dispositivo, web beacon o altre tecnologie simili. Puoi modificare le impostazioni nel browser del tuo dispositivo.

Per determinati scopi, è possibile fare affidamento su interessi legali, piuttosto che sul consenso. Puoi approfondire questo argomento consultando la nostra Informativa sulla privacy e sui cookie.